TimeEDT,TemperatureF,Dew PointF,Humidity,Sea Level PressureIn,VisibilityMPH,Wind Direction,Wind SpeedMPH,Gust SpeedMPH,PrecipitationIn,Events,Conditions,WindDirDegrees,DateUTC
12:54 AM,54.0,51.1,90,30.13,10.0,SSW,4.6,-,N/A,,Clear,210,2012-10-05 04:54:00
1:54 AM,52.0,50.0,93,30.13,9.0,South,3.5,-,N/A,,Clear,180,2012-10-05 05:54:00
2:54 AM,51.1,50.0,96,30.13,4.0,Calm,Calm,-,N/A,,Clear,0,2012-10-05 06:54:00
3:41 AM,48.2,48.2,100,30.13,2.5,Calm,Calm,-,N/A,,Clear,0,2012-10-05 07:41:00
3:49 AM,50.0,48.2,94,30.13,3.0,Calm,Calm,-,N/A,,Clear,0,2012-10-05 07:49:00
3:54 AM,50.0,48.0,93,30.12,3.0,Calm,Calm,-,N/A,,Clear,0,2012-10-05 07:54:00
4:19 AM,50.0,48.2,94,30.13,2.5,Calm,Calm,-,N/A,,Clear,0,2012-10-05 08:19:00
4:31 AM,50.0,48.2,94,30.13,3.0,Calm,Calm,-,N/A,,Clear,0,2012-10-05 08:31:00
4:54 AM,50.0,48.0,93,30.13,3.0,SSW,3.5,-,N/A,,Clear,200,2012-10-05 08:54:00
5:54 AM,50.0,48.9,96,30.12,3.0,South,3.5,-,N/A,,Clear,180,2012-10-05 09:54:00
6:54 AM,52.0,50.0,93,30.12,7.0,SSW,4.6,-,0.01,,Clear,210,2012-10-05 10:54:00
7:54 AM,51.1,50.0,96,30.13,3.0,South,5.8,-,N/A,,Clear,190,2012-10-05 11:54:00
8:54 AM,55.0,53.1,93,30.13,7.0,South,5.8,-,N/A,,Clear,190,2012-10-05 12:54:00
9:54 AM,60.1,54.0,80,30.12,10.0,SSW,10.4,-,N/A,,Clear,200,2012-10-05 13:54:00
10:54 AM,66.0,55.9,70,30.10,10.0,South,6.9,-,N/A,,Clear,190,2012-10-05 14:54:00
11:54 AM,71.1,55.9,59,30.07,10.0,SSW,10.4,-,N/A,,Partly Cloudy,210,2012-10-05 15:54:00
12:54 PM,73.9,54.0,50,30.05,10.0,WSW,12.7,18.4,N/A,,Mostly Cloudy,240,2012-10-05 16:54:00
1:54 PM,73.0,53.1,49,30.04,10.0,West,12.7,20.7,N/A,,Mostly Cloudy,270,2012-10-05 17:54:00
2:54 PM,73.0,54.0,51,30.02,10.0,West,9.2,-,N/A,,Mostly Cloudy,280,2012-10-05 18:54:00
3:54 PM,72.0,54.0,53,30.01,10.0,WSW,8.1,-,N/A,,Overcast,250,2012-10-05 19:54:00
4:54 PM,71.1,53.1,53,30.00,10.0,SSW,13.8,19.6,N/A,,Overcast,210,2012-10-05 20:54:00
5:54 PM,70.0,54.0,57,29.99,10.0,SW,8.1,-,N/A,,Partly Cloudy,220,2012-10-05 21:54:00
6:54 PM,66.0,55.0,68,29.98,10.0,South,3.5,-,N/A,,Clear,190,2012-10-05 22:54:00
7:54 PM,64.0,55.0,73,29.98,10.0,SW,3.5,-,N/A,,Clear,220,2012-10-05 23:54:00
8:54 PM,62.1,55.0,78,29.97,10.0,SSW,3.5,-,N/A,,Clear,210,2012-10-06 00:54:00
9:54 PM,60.1,55.0,83,29.95,10.0,Calm,Calm,-,N/A,,Clear,0,2012-10-06 01:54:00
10:54 PM,60.1,54.0,80,29.93,10.0,SW,4.6,-,N/A,,Overcast,220,2012-10-06 02:54:00
11:54 PM,60.1,54.0,80,29.91,10.0,Calm,Calm,-,N/A,,Mostly Cloudy,0,2012-10-06 03:54:00